Theta_e
330 330 331 331 331 331 331 331 331 331 331 330 330 330 330 330 329 328 328 326 324 323 324 323 322 321 320 318 317 315 313 311 310 309 307 304 298 294 294 294 293 293
329 330 330 331 331 331 331 330 330 330 330 330 329 330 330 330 330 329 328 325 323 323 323 323 321 320 319 317 315 313 310 309 309 308 304 298 294 294 294 293 293 293
329 329 330 330 331 331 330 330 330 330 330 329 328 330 330 330 330 329 327 325 323 323 322 321 320 319 318 316 314 311 309 308 307 304 300 295 293 293 293 293 292 292
328 329 329 330 330 331 330 330 329 330 329 328 328 330 330 330 330 328 326 325 324 322 322 321 319 318 317 315 314 312 308 306 304 301 297 294 293 293 293 292 292 291
328 328 328 329 330 330 329 329 329 329 328 327 328 329 329 329 329 327 325 325 323 321 321 320 318 317 316 314 313 311 307 305 302 298 295 293 293 293 292 292 291 290
327 327 328 328 329 329 328 328 328 329 327 327 328 328 327 328 328 327 325 323 322 321 320 319 318 317 315 314 312 308 304 302 298 294 293 293 293 292 292 291 290 289
326 326 327 327 328 328 328 328 328 328 327 327 327 327 327 327 327 326 324 323 322 321 320 319 318 317 314 313 310 306 302 298 294 293 293 292 292 292 291 290 289 289
324 325 326 326 327 327 327 327 327 327 327 327 326 326 327 327 327 326 323 322 322 321 320 319 318 316 314 312 309 304 299 295 293 293 292 292 292 291 290 289 289 289
324 324 325 326 326 326 327 327 327 327 327 327 326 326 326 326 326 325 323 322 321 320 319 318 316 315 313 312 309 302 296 294 293 292 292 292 291 290 290 289 288 288
322 323 324 324 325 325 326 326 326 326 326 326 326 325 326 325 324 323 322 321 321 320 319 317 316 314 312 311 309 302 295 293 292 292 291 291 291 290 289 288 288 288
320 321 322 323 324 324 324 325 325 325 325 325 325 324 325 325 324 322 320 319 319 320 318 317 316 314 311 310 307 300 294 292 292 291 291 291 290 289 289 288 288 288
317 319 320 321 322 323 323 324 324 324 324 324 324 323 323 323 323 322 320 318 319 319 318 317 316 313 310 308 305 298 293 292 291 291 290 290 289 289 288 288 288 288
313 316 318 319 320 321 322 322 322 322 322 322 322 322 321 320 320 321 319 317 318 318 318 318 315 310 308 307 302 296 292 291 290 290 290 289 289 288 288 288 288 288
309 311 314 317 318 319 319 320 320 320 320 320 320 320 319 319 320 320 318 316 316 316 316 318 313 308 306 305 300 294 291 290 290 290 289 289 288 288 288 287 287 287
309 310 311 313 315 317 317 317 318 318 318 318 318 317 317 317 317 318 318 316 316 315 315 314 310 306 305 303 297 292 291 290 290 289 289 288 288 287 287 287 287 287
311 311 311 312 314 315 316 316 316 316 316 316 315 314 314 312 311 312 315 316 316 316 313 310 307 305 303 299 295 292 290 290 289 289 288 288 288 287 287 287 287 287
311 311 311 312 313 313 314 315 315 314 314 314 313 311 311 310 308 309 313 315 316 316 312 307 304 303 300 296 293 291 290 290 289 288 288 288 288 287 287 287 287 287
309 309 310 311 311 312 312 312 312 312 312 311 310 310 309 308 307 308 312 314 313 312 309 305 303 301 297 294 292 290 290 290 289 288 288 288 287 287 287 287 287 286
308 308 309 309 310 310 310 310 310 310 310 309 309 309 309 309 308 308 311 312 309 307 305 303 301 299 295 292 291 290 289 289 289 288 288 288 287 287 287 287 287 286
307 307 308 308 308 308 308 308 308 308 307 307 307 307 306 307 308 308 309 309 306 303 301 300 299 296 293 291 290 289 289 288 288 288 288 287 287 287 287 287 287 286
307 306 307 306 307 306 305 305 306 306 306 305 305 305 306 307 308 308 308 307 304 300 298 298 296 294 292 290 290 289 288 288 288 288 287 287 287 287 287 286 286 286
306 306 305 305 305 304 303 303 303 304 305 304 304 304 305 306 306 307 307 306 301 297 295 295 294 292 291 290 289 288 287 287 287 287 287 287 287 286 286 286 286 286
306 305 304 304 303 303 302 302 302 303 303 303 303 303 304 304 304 304 303 302 298 294 293 293 292 291 290 289 288 287 287 287 286 286 286 286 286 286 286 286 285 286
305 305 304 303 303 303 303 302 303 303 303 303 303 304 304 303 302 301 299 297 295 293 292 292 291 290 289 288 288 287 286 286 286 286 286 286 286 286 285 285 285 285
304 304 304 304 304 304 303 302 302 303 303 302 303 303 303 302 300 298 296 293 292 291 291 291 291 290 288 288 287 286 286 286 286 286 286 286 286 285 285 285 285 285
303 304 303 304 304 304 303 302 302 302 301 301 300 300 299 298 297 295 293 291 290 290 289 289 289 289 288 287 286 286 285 286 286 286 286 286 286 285 285 285 285 285
Wind_Speed
29 28 28 28 28 27 26 28 28 27 29 32 34 33 30 29 29 29 29 27 24 25 26 25 23 21 19 15 14 14 12 13 16 16 18 20 21 21 20 18 17 15
30 29 29 27 27 28 29 28 27 29 28 28 33 34 31 31 31 30 30 28 26 27 27 26 23 20 19 16 15 16 15 17 21 22 22 22 21 20 19 18 16 14
29 29 29 28 27 29 31 29 27 29 27 24 30 35 33 34 34 32 33 30 28 29 28 26 23 20 18 17 17 19 20 23 25 24 24 23 21 20 19 17 15 13
29 29 29 29 28 30 32 29 27 29 27 23 28 34 34 34 35 34 35 32 29 30 30 27 23 20 19 19 20 21 22 24 25 25 25 23 22 20 19 17 15 13
28 29 29 29 29 31 31 29 29 30 28 26 28 32 34 35 35 36 36 33 30 32 31 28 24 21 20 21 22 22 23 25 26 26 26 24 22 21 19 17 15 14
28 30 30 30 31 31 31 30 30 31 30 29 28 31 34 35 35 37 37 35 33 34 32 29 25 22 22 23 24 24 25 27 28 27 26 24 23 20 18 16 15 14
30 31 32 31 31 31 31 30 31 32 30 29 29 31 34 35 36 37 38 37 35 35 33 29 25 23 24 25 26 26 27 29 28 27 26 24 22 20 18 17 16 15
29 30 31 30 30 31 31 29 29 31 31 29 30 32 34 35 37 38 39 38 36 35 33 29 25 24 26 27 28 28 29 29 28 27 26 24 22 20 19 17 16 15
26 27 28 29 29 29 30 29 28 29 30 31 32 33 34 35 36 38 39 39 36 35 32 29 26 26 27 29 30 30 31 30 29 28 26 24 22 21 19 18 17 15
24 26 28 29 31 31 30 30 29 29 29 31 32 33 33 34 35 38 40 39 37 35 32 29 27 27 29 30 31 31 32 31 29 27 25 23 22 20 19 18 17 15
24 26 28 29 30 31 31 30 30 30 30 31 32 33 33 34 35 37 38 39 38 36 33 29 27 28 30 31 31 31 31 30 29 27 24 23 21 20 19 18 17 15
24 25 26 27 28 28 29 29 30 30 30 31 32 33 34 35 36 37 38 39 37 35 32 28 26 28 31 32 32 32 31 29 28 26 24 23 21 20 19 18 16 15
21 23 24 24 25 26 26 27 28 29 30 30 31 32 34 36 37 37 39 38 36 34 31 27 26 30 32 32 33 32 31 30 28 27 25 23 21 20 20 18 16 15
17 20 21 22 22 23 24 25 26 27 28 29 30 31 32 35 36 37 38 37 35 33 30 26 28 32 33 33 34 33 32 31 29 27 25 24 22 21 20 19 17 15
15 17 19 21 21 21 21 22 23 24 26 27 28 29 31 34 36 37 39 37 33 30 28 28 30 34 35 35 35 34 32 31 29 27 26 25 24 23 21 19 17 16
16 17 19 20 21 21 22 22 23 24 25 26 28 29 31 33 34 36 38 37 34 30 28 30 33 35 36 36 35 34 33 31 29 28 26 26 25 24 22 20 18 16
17 18 19 20 21 22 23 24 24 25 26 27 28 29 30 31 32 34 36 35 32 30 30 33 35 35 35 35 34 34 33 31 30 29 27 26 25 24 23 21 19 16
16 17 18 19 20 21 23 23 24 24 25 26 27 28 30 31 31 33 33 32 30 29 31 35 36 35 35 35 34 33 32 31 30 29 28 27 26 24 22 21 19 17
16 16 17 18 19 20 21 22 22 23 24 26 27 28 30 30 31 32 32 31 30 30 32 35 36 36 36 35 34 33 32 31 30 29 28 27 26 24 22 20 19 18
16 16 17 18 18 19 20 21 22 23 24 25 27 28 30 31 32 32 31 30 30 31 34 36 37 37 36 35 34 33 32 31 30 29 29 27 26 24 22 21 19 17
17 17 18 18 18 19 20 20 21 22 23 25 27 28 30 31 31 30 29 29 30 32 34 36 37 37 36 35 34 33 33 32 31 30 29 27 25 24 22 21 19 17
17 18 18 19 19 19 20 20 21 22 23 24 26 27 28 29 29 29 29 29 31 33 35 36 37 37 36 35 34 34 34 33 31 30 29 27 26 24 22 21 20 18
18 18 18 19 19 20 20 21 21 22 23 25 26 26 27 27 26 27 28 30 32 34 35 36 37 37 36 36 35 35 35 34 32 31 29 27 26 25 24 23 21 19
18 18 18 19 20 20 21 21 21 22 23 24 25 25 25 25 25 26 27 30 32 34 35 35 36 36 36 36 36 37 36 35 33 31 29 27 26 26 25 24 22 19
18 19 19 19 20 20 21 21 21 22 22 22 22 22 23 23 24 25 27 30 32 33 33 34 35 36 37 37 38 38 37 35 33 31 30 29 29 28 27 25 22 20
19 19 20 20 20 20 20 20 20 20 20 21 21 21 22 22 24 26 28 30 32 32 31 32 34 36 38 38 38 38 36 34 33 32 31 31 31 30 28 26 24 22
Wind_Direction
212 216 218 218 219 220 216 213 210 209 209 209 212 216 216 218 221 218 214 217 221 216 213 214 212 213 217 220 218 210 202 202 196 190 190 186 180 177 177 178 178 177
209 213 215 215 217 218 215 212 212 211 211 214 216 217 216 217 220 217 212 215 218 215 213 213 213 216 222 228 220 201 191 195 196 194 189 183 179 178 178 179 178 175
206 209 212 212 214 216 213 211 213 213 213 214 217 218 216 216 217 214 211 214 215 212 211 211 214 219 225 227 215 198 196 201 198 190 184 181 180 180 180 180 177 174
206 208 209 210 213 215 212 211 213 213 211 213 217 218 215 216 216 211 209 210 211 209 208 210 214 219 224 221 213 207 207 203 193 184 182 181 181 182 181 180 178 176
208 209 210 210 212 213 211 210 212 212 210 213 216 214 211 213 214 210 207 207 205 204 205 208 212 217 221 215 209 210 207 197 187 184 183 181 181 183 182 180 178 177
210 210 211 211 213 212 210 211 212 210 211 214 215 210 208 211 212 210 207 204 202 202 204 206 208 214 216 210 206 208 201 192 186 185 185 183 182 183 182 180 178 178
214 213 213 214 214 213 212 213 212 211 214 215 212 208 208 211 211 210 207 203 201 202 204 206 208 212 212 206 203 203 197 191 187 185 186 184 183 181 180 179 179 180
218 216 215 213 212 212 212 212 212 212 215 214 210 210 212 212 212 210 206 202 201 202 203 206 210 212 210 204 201 200 196 191 188 187 186 185 183 181 180 180 180 181
219 217 215 213 213 214 213 214 215 216 217 216 213 214 215 214 213 210 205 201 201 203 203 204 207 209 207 202 200 199 195 191 188 188 187 185 184 182 180 181 181 181
222 221 220 220 220 220 220 220 220 219 219 218 216 217 216 214 212 209 203 199 200 202 202 203 206 207 204 201 200 199 195 191 188 188 187 186 185 183 181 182 182 181
225 224 223 223 223 224 224 224 222 220 220 218 217 218 216 213 211 207 201 198 199 201 201 202 206 206 202 199 198 197 194 192 189 187 186 185 186 185 183 184 183 181
225 225 225 225 226 226 225 224 222 220 218 218 218 218 215 211 208 206 202 199 200 201 202 204 207 205 200 197 195 195 193 191 189 187 186 185 185 186 185 185 184 182
224 225 226 228 227 227 227 226 224 221 219 219 219 218 215 209 202 202 202 200 200 201 202 206 206 201 198 196 194 193 192 191 189 186 185 185 185 186 186 186 185 184
230 226 226 228 229 229 229 227 225 223 221 220 219 218 216 210 205 203 200 198 200 201 201 206 205 199 196 194 193 192 191 190 189 187 185 184 185 187 187 186 185 185
233 228 225 227 229 230 230 229 227 224 222 221 219 217 214 208 204 201 198 197 200 203 204 206 202 197 195 194 192 191 191 191 190 188 186 185 185 186 187 186 186 187
228 225 222 222 224 226 228 228 226 223 221 220 217 214 210 205 198 195 195 196 199 203 206 204 199 196 195 195 194 192 191 191 190 188 188 187 187 187 186 186 188 189
228 224 220 218 218 218 219 220 221 219 218 217 215 211 208 203 198 194 194 196 199 202 204 201 197 195 194 194 195 194 193 192 190 188 188 189 190 189 187 188 189 188
231 227 222 220 218 217 216 216 216 216 215 214 212 210 207 203 198 195 194 197 200 201 201 198 195 194 194 194 194 195 195 194 192 190 190 191 192 191 190 190 189 188
231 228 225 223 221 219 218 216 214 214 213 211 209 208 206 203 199 196 195 198 200 199 198 196 194 193 194 194 194 195 196 195 193 193 192 192 192 192 192 192 191 190
229 227 225 225 222 220 219 218 215 213 210 208 206 203 200 198 197 197 198 200 200 199 196 194 194 195 194 194 195 195 195 195 195 194 194 193 193 193 193 193 194 193
227 225 223 223 222 219 216 214 213 212 208 205 204 201 198 196 196 199 202 202 201 199 195 194 195 195 195 195 195 194 194 195 195 195 194 193 194 194 194 195 196 196
223 221 220 221 221 217 213 209 208 207 207 205 202 200 198 198 199 202 205 204 201 199 196 195 195 195 195 195 194 194 194 194 195 195 194 193 194 194 195 197 198 198
221 219 218 218 218 215 212 210 207 205 204 202 200 198 199 201 203 205 206 204 200 198 197 195 194 195 196 195 194 194 194 194 194 194 194 193 194 195 197 199 200 200
219 220 219 218 217 216 213 210 208 207 206 204 203 203 204 207 209 208 206 204 201 199 198 198 197 195 196 196 196 196 196 196 195 193 192 193 195 197 199 200 200 201
218 220 220 220 220 220 217 211 208 208 208 207 208 210 211 212 212 210 206 203 202 200 199 200 199 197 196 197 197 197 197 197 196 194 193 195 197 199 200 200 201 203
220 220 221 222 223 223 221 217 214 212 212 212 212 213 214 214 213 210 206 202 200 199 199 201 201 198 197 198 198 198 199 199 199 198 198 198 200 200 200 200 201 203